Regional Weather Roundup
Issued by NWS

Home | Current Version | Previous Version | Graphics & Text | Print | Product List | Glossary On
Versions: 1 2 3 4 5 6 7 8 9 10 11 12 13 14 15 16 17 18 19 20 21 22 23 24 25 26 27 28 29 30 31 32 33 34 35 36 37 38 39 40 41 42 43 44 45 46 47 48 49 50
000
ASUS43 KTOP 291959
RWRKS

WEATHER ROUNDUP FOR KANSAS
NATIONAL WEATHER SERVICE GOODLAND KS
300 PM CDT MON AUG 29 2016

NOTE:  "FAIR" INDICATES FEW OR NO CLOUDS BELOW 12,000 FEET WITH NO
SIGNIFICANT WEATHER AND/OR OBSTRUCTIONS TO VISIBILITY.

KSZ001>006-013>018-027>032-041>047-292100-
NORTHWEST KANSAS

CITY           SKY/WX    TMP DP  RH WIND       PRES   REMARKS
GOODLAND       CLOUDY    72  61  68 S12       30.26R
HAYS           CLOUDY    81  63  54 N5        30.17F
HILL CITY      CLOUDY    76  68  76 S5        30.21F
RUSSELL        CLOUDY    84  70  62 NW9       30.14F
$$

KSZ061>065-074>080-084>089-292100-
SOUTHWEST KANSAS

CITY           SKY/WX    TMP DP  RH WIND       PRES   REMARKS
DODGE CITY     LGT RAIN  74  67  78 SW6       30.20F
ELKHART          N/A    N/A N/A N/A MISG        N/A
GARDEN CITY    PTSUNNY   73  68  84 E10       30.21F
GREAT BEND     CLOUDY    79  66  65 SE14G21   30.14S
LIBERAL        CLOUDY    73  66  78 CALM      30.23F
$$

KSZ066>073-081>083-090>101-292100-
SOUTHEAST KANSAS

CITY           SKY/WX    TMP DP  RH WIND       PRES   REMARKS
CHANUTE        CLOUDY    86  73  65 W3        30.14F
COFFEYVILLE    PTSUNNY   85  75  72 VRB5      30.13F
HUTCHINSON     SUNNY     88  66  48 SE13G21   30.14F
MEDICINE LODGE   N/A     85  69  58 S8G16     30.11F
NEWTON         SUNNY     85  69  58 SE12      30.16F
PARSONS        MOSUNNY   84  74  71 W5        30.14F
WICHITA INTL   PTSUNNY   88  67  49 SE8       30.13F
WICHITA JABRA  MOSUNNY   85  71  63 SE6       30.14F
WINFIELD       MOSUNNY   84  74  71 SE7       30.14F
$$

KSZ007>012-019>026-033>040-048>060-102>105-292100-
NORTHEAST KANSAS

CITY           SKY/WX    TMP DP  RH WIND       PRES   REMARKS
CONCORDIA      PTSUNNY   86  70  58 SE7       30.15F
EMPORIA        LGT RAIN  82  73  74 SE6       30.15F
LAWRENCE       MOSUNNY   90  71  53 SE7       30.13F HX  96
MANHATTAN      PTSUNNY   90  70  51 SE9       30.13F HX  95
OLATHE IND     SUNNY     87  70  56 SE5       30.15F
OLATHE EXE     MOSUNNY   85  66  53 NE5       30.15F
SALINA         CLOUDY    79  74  84 VRB7      30.16R THUNDER HAZE
TOPEKA BILLARD MOSUNNY   90  69  50 SE3       30.13F
TOPEKA FORBES  MOSUNNY   89  69  51 SE10      30.14F
$$




USA.gov is the U.S. government's official web portal to all federal, state and local government web resources and services.